Location: Strada George Coșbuc
(47.6577°N, 23.5639°E)
Time: 01:27:07
(UTC+03:00)

ISS - Pass Details

Date: 06 September 2017
Orbit: 401 x 407 km, 51.6° (Epoch: 23 September)

Event Time Altitude Azimuth Distance (km) Brightness Sun altitude
Exits shadow 04:33:59 20° 129° (SE) 1,010 -1.7 -21.7°
Drops below altitude 10° 04:36:09 10° 89° (E) 1,472 -0.3 -21.4°
Sets 04:38:34 0° 72° (ENE) 2,337 1.3 -21.1°
